TimeCST,TemperatureF,Dew PointF,Humidity,Sea Level PressureIn,VisibilityMPH,Wind Direction,Wind SpeedMPH,Gust SpeedMPH,PrecipitationIn,Events,Conditions,WindDirDegrees,DateUTC
12:16 AM,32.0,32.0,100,29.85,2.5,Calm,Calm,-,N/A,,Overcast,0,2013-02-22 06:16:00
12:18 AM,32.0,32.0,100,29.85,2.5,Calm,Calm,-,N/A,,Drizzle,0,2013-02-22 06:18:00
12:38 AM,32.0,32.0,100,29.85,2.5,Calm,Calm,-,N/A,,Overcast,0,2013-02-22 06:38:00
12:46 AM,32.0,32.0,100,29.85,3.0,Calm,Calm,-,N/A,,Overcast,0,2013-02-22 06:46:00
12:55 AM,32.2,32.0,99,29.85,3.0,Calm,Calm,-,0.01,,Overcast,0,2013-02-22 06:55:00
1:05 AM,32.0,32.0,100,29.86,2.5,Calm,Calm,-,N/A,,Overcast,0,2013-02-22 07:05:00
1:24 AM,32.0,32.0,100,29.86,2.5,Calm,Calm,-,N/A,,Overcast,0,2013-02-22 07:24:00
1:36 AM,32.0,32.0,100,29.85,3.0,Calm,Calm,-,N/A,Snow,Light Snow,0,2013-02-22 07:36:00
1:44 AM,32.0,32.0,100,29.84,2.5,Calm,Calm,-,N/A,Snow,Light Snow,0,2013-02-22 07:44:00
1:51 AM,32.0,32.0,100,29.85,2.5,Calm,Calm,-,N/A,Snow,Light Snow,0,2013-02-22 07:51:00
1:55 AM,32.2,32.0,99,29.84,2.0,Calm,Calm,-,0.00,Snow,Light Snow,0,2013-02-22 07:55:00
1:58 AM,32.0,32.0,100,29.83,2.5,Calm,Calm,-,N/A,Snow,Light Snow,0,2013-02-22 07:58:00
2:06 AM,32.0,32.0,100,29.83,2.0,Calm,Calm,-,N/A,Snow,Light Snow,0,2013-02-22 08:06:00
2:09 AM,32.0,32.0,100,29.83,2.0,Calm,Calm,-,N/A,,Overcast,0,2013-02-22 08:09:00
2:21 AM,32.0,32.0,100,29.84,2.0,Calm,Calm,-,N/A,,Overcast,0,2013-02-22 08:21:00
2:25 AM,32.0,32.0,100,29.83,2.5,Calm,Calm,-,N/A,,Overcast,0,2013-02-22 08:25:00
2:34 AM,32.0,32.0,100,29.83,3.0,Calm,Calm,-,N/A,,Overcast,0,2013-02-22 08:34:00
2:40 AM,32.0,32.0,100,29.84,2.5,Calm,Calm,-,N/A,,Overcast,0,2013-02-22 08:40:00
2:55 AM,32.4,32.2,99,29.84,2.5,Calm,Calm,-,0.00,,Overcast,0,2013-02-22 08:55:00
3:04 AM,32.0,32.0,100,29.84,2.0,Calm,Calm,-,N/A,,Overcast,0,2013-02-22 09:04:00
3:19 AM,32.0,32.0,100,29.83,3.0,Calm,Calm,-,N/A,,Overcast,0,2013-02-22 09:19:00
3:36 AM,32.0,32.0,100,29.83,1.5,Calm,Calm,-,N/A,,Overcast,0,2013-02-22 09:36:00
3:43 AM,32.0,32.0,100,29.83,1.2,Calm,Calm,-,N/A,,Overcast,0,2013-02-22 09:43:00
3:55 AM,32.5,32.4,99,29.83,1.2,Calm,Calm,-,N/A,,Overcast,0,2013-02-22 09:55:00
4:14 AM,32.0,32.0,100,29.83,2.5,Calm,Calm,-,N/A,,Overcast,0,2013-02-22 10:14:00
4:55 AM,32.7,32.5,99,29.85,2.5,Calm,Calm,-,N/A,,Overcast,0,2013-02-22 10:55:00
5:04 AM,32.0,32.0,100,29.85,3.0,Calm,Calm,-,N/A,,Overcast,0,2013-02-22 11:04:00
5:19 AM,33.8,33.8,100,29.86,4.0,Calm,Calm,-,N/A,,Overcast,0,2013-02-22 11:19:00
5:34 AM,33.8,33.8,100,29.87,5.0,Calm,Calm,-,N/A,,Overcast,0,2013-02-22 11:34:00
5:52 AM,32.0,32.0,100,29.88,6.0,Calm,Calm,-,N/A,,Overcast,0,2013-02-22 11:52:00
5:55 AM,32.9,32.9,100,29.87,6.0,Calm,Calm,-,N/A,,Overcast,0,2013-02-22 11:55:00
6:04 AM,33.8,33.8,100,29.87,6.0,Calm,Calm,-,N/A,,Overcast,0,2013-02-22 12:04:00
6:16 AM,33.8,33.8,100,29.88,7.0,Calm,Calm,-,N/A,,Overcast,0,2013-02-22 12:16:00
6:17 AM,33.8,33.8,100,29.88,8.0,Calm,Calm,-,N/A,,Overcast,0,2013-02-22 12:17:00
6:26 AM,33.8,33.8,100,29.88,9.0,Calm,Calm,-,N/A,,Overcast,0,2013-02-22 12:26:00
6:55 AM,33.4,33.3,99,29.89,10.0,Variable,3.5,-,N/A,,Overcast,0,2013-02-22 12:55:00
7:55 AM,34.3,34.2,99,29.91,10.0,Variable,3.5,-,N/A,,Overcast,0,2013-02-22 13:55:00
8:55 AM,34.0,33.8,99,29.94,10.0,Calm,Calm,-,N/A,,Overcast,0,2013-02-22 14:55:00
9:01 AM,33.8,33.8,100,29.94,10.0,Calm,Calm,-,N/A,,Overcast,0,2013-02-22 15:01:00
9:55 AM,34.7,34.5,99,29.95,10.0,Calm,Calm,-,N/A,,Overcast,0,2013-02-22 15:55:00
10:55 AM,35.2,34.7,98,29.96,10.0,Variable,5.8,-,N/A,,Overcast,0,2013-02-22 16:55:00
11:15 AM,35.6,35.6,100,29.97,10.0,Variable,4.6,-,N/A,,Overcast,0,2013-02-22 17:15:00
11:24 AM,35.6,32.0,87,29.97,10.0,Variable,5.8,-,N/A,,Overcast,0,2013-02-22 17:24:00
11:30 AM,35.6,30.2,81,29.97,10.0,Variable,4.6,-,N/A,,Overcast,0,2013-02-22 17:30:00
11:36 AM,35.6,30.2,81,29.97,10.0,WSW,8.1,-,N/A,,Overcast,240,2013-02-22 17:36:00
11:55 AM,35.6,28.6,76,29.97,10.0,Variable,5.8,-,N/A,,Overcast,0,2013-02-22 17:55:00
12:01 PM,35.6,26.6,70,29.98,10.0,Variable,5.8,-,N/A,,Overcast,0,2013-02-22 18:01:00
12:55 PM,35.6,27.5,72,29.98,10.0,Variable,3.5,-,N/A,,Overcast,0,2013-02-22 18:55:00
1:55 PM,34.3,28.4,79,29.99,10.0,Variable,6.9,-,N/A,,Overcast,0,2013-02-22 19:55:00
2:52 PM,33.8,26.6,75,30.00,10.0,West,10.4,-,N/A,,Overcast,270,2013-02-22 20:52:00
2:55 PM,34.5,26.8,73,30.00,10.0,West,8.1,-,N/A,,Overcast,280,2013-02-22 20:55:00
3:29 PM,33.8,24.8,70,30.01,10.0,West,10.4,17.3,N/A,,Overcast,270,2013-02-22 21:29:00
3:55 PM,33.8,25.3,71,30.01,10.0,West,9.2,17.3,N/A,,Overcast,270,2013-02-22 21:55:00
4:55 PM,33.3,24.4,70,30.01,10.0,West,9.2,-,N/A,,Overcast,270,2013-02-22 22:55:00
5:55 PM,32.0,23.7,71,30.03,10.0,West,5.8,-,N/A,,Scattered Clouds,260,2013-02-22 23:55:00
6:55 PM,29.7,23.5,78,30.05,10.0,West,3.5,-,N/A,,Clear,270,2013-02-23 00:55:00
7:55 PM,27.7,23.0,83,30.06,10.0,Calm,Calm,-,N/A,,Clear,0,2013-02-23 01:55:00
8:55 PM,24.4,21.7,89,30.08,10.0,Calm,Calm,-,N/A,,Clear,0,2013-02-23 02:55:00
9:55 PM,23.5,22.3,95,30.09,10.0,NW,3.5,-,N/A,,Clear,310,2013-02-23 03:55:00
10:55 PM,22.3,18.9,87,30.09,10.0,NW,5.8,-,N/A,,Clear,320,2013-02-23 04:55:00
11:55 PM,23.9,18.9,81,30.09,10.0,WNW,5.8,-,N/A,,Clear,290,2013-02-23 05:55:00